TRACERS 1 (64870 NORAD) Tracking and Keplerian Element Data

This shows tracking and keplerian element data for the satellite.

Feedback or suggestion? Click here.




ElementValue
Catalog64870
NameTRACERS 1
Epoch Orbit2228
Epoch Day354.18182189
Epoch Year2025
RAAN57.038
Inclination97.6949
Eccentricity0.0006631
Argument of Perigee125.5496
Mean Anonmoly234.6342
Mean Motion14.92773893
Decay Rate1.362E-05
L11 64870U 25154B 25354.18182189 .00001362 00000+0 13713-3 0 9998
L22 64870 97.6949 57.0380 0006631 125.5496 234.6342 14.92773893 22283



Live tracking and technical data element details for TRACERS 1 (NORAD 64870). TRACERS 1 can be tracked NOW for your location showing map with azimuth and elevation plus other details from your city location.







IsCatalogInMostPopularTable: catalog: 64870, numindb: 5
Update: records affected: 1



GetName: 64870 TRACERS 1

Hit Count: updated at: Tue, 21 Apr 2026 19:13:56 GMT